DELTA 1 DEB, 26847

Orbit data source: Space-Track

DELTA 1 DEB, 26847 is space debris in SSO originally from a launch on Thu, 12 Jun 1975 UTC launched from the Air Force Western Test Range (AFWTR). Debris objects in space refer to the collection of defunct objects orbiting the Earth. Examples of debris include non-operational satellites, rocket bodies, and fragments generated from explosions, collisions, or faulty payload assembly.

Loading next visibility...
Identifier
26847, 1975-052LB
Orbit
SSO
Country
Flag of USUS
Related business
Manufacturer
Unknown
Mission
Spacecraft
Bus & Motor
Unknown
Mass
Unknown
Launch date (UTC)
1975-06-12 (51 years ago)
Launch vehicle
Unknown
Launch site
Air Force Western Test Range (AFWTR)
Object type
Payload
Rocket body
Debris
Shape & HBR
Unknown shape, 0.1 m
Radar Cross Section
Small (<0.1 m²)

Expand to show TLE details & history
Last TLE update: 21 hours ago

TLE from 21 hours ago
0 DELTA 1 DEB
1 26847U 75052LB  26034.30133927 -.00000007  00000-0  71394-4 0  9995
2 26847  99.6699  50.7685 0090746 140.0801 234.3782 13.27107702395149
Epoch: 2026-02-03T07:13Z
TLE epoch observation values (Epoch: 2026-02-03T07:13:55.712Z)
Latitude
13.38931°
Longitude
166.48936°
Altitude
1,199.952 km
Speed
7.236 km/s
True Right ascension
03h 13m 49s
True Declination
13° 18' 60"
Sunlit
Object was in daylight at epoch
Visualization orbit readout
Latitude
Unknown
Longitude
Unknown
Altitude
Unknown
Speed
Unknown
Apparent Right ascension
Unknown
Apparent Declination
Unknown
Sunlit
N/A
Visualization observer readout
Local Sidereal Time
06:25:53
Azimuth
Unknown
Elevation
Unknown
Doppler factor
Unknown
Orbital elements
Apogee altitude
1,223.383 km
Perigee altitude
1,086.662 km
Semi-major axis
7,533.16 km
Eccentricity
0.00907
Inclination
99.6699°
RAAN
50.7685°
Arg. of periapsis
140.0801°
True anomaly
233.53849°
Mean anomaly
234.3782°
Eccentric anomaly
233.95779°
Mean motion
3.31954 °/min
Orbital period
108.45 mins
BSTAR
0.000071394
Loading maneuver chart data...
Computing Atmospheric mass density...
Loading historical data...
Loading historical data...
Loading historical data...
Loading historical data...
Loading historical data...
Loading historical data...
Loading historical data...

Documentation

Showing up to 5 results
|